#timestamp,LO_Frequency,Hit 
1499810415.5,286047259.9,N
1499810435.4,286047255.8,N
1499810455.2,286047258.1,N
1499810475.0,286047255.9,N
1499810475.9,286047255.9,N
1499810495.8,286047256.8,N
1499810515.6,286047258.3,N
1499810535.4,286047258.4,N
1499810555.3,286047257.1,N
1499810575.1,286047257.5,N
1499810576.0,286047257.5,N
1499810595.8,286047258.8,N
1499810615.7,286047258.0,N
1499810635.5,286047261.3,N
1499810655.3,286047261.1,N
1499810675.2,286047262.6,N
1499810695.9,286047264.0,N
1499810715.7,286047266.0,N
1499810735.5,286047265.8,N
1499810755.4,286047265.6,N
1499810775.2,286047264.2,N
1499810795.0,286047265.9,N
1499810795.9,286047265.9,N
1499810815.8,286047268.1,N
1499810835.6,286047267.5,N
1499810855.4,286047268.4,N
1499810875.3,286047267.8,N
1499810895.1,286047268.4,N
1499810915.8,286047266.9,N
1499810935.7,286047268.2,N
1499810955.5,286047266.9,N
1499810975.3,286047267.4,N
1499810995.2,286047267.1,N
1499811015.9,286047269.8,N
1499811035.7,286047267.5,N
1499811055.6,286047269.3,N
1499811075.4,286047268.6,N
1499811095.2,286047268.8,N
1499811115.0,286047269.1,N
1499811116.0,286047269.1,N
1499811135.8,286047269.2,N
1499811155.6,286047269.0,N
1499811175.4,286047268.7,N
1499811195.3,286047268.8,N
1499811215.1,286047271.0,N
1499811235.8,286047270.7,N
1499811255.7,286047267.1,N
1499811275.5,286047268.9,N
1499811295.3,286047268.8,N
1499811315.2,286047273.1,N
1499811335.9,286047271.3,N
1499811355.7,286047272.3,N
1499811375.6,286047271.2,N
1499811395.4,286047273.2,N
1499811415.2,286047270.1,N
1499811435.1,286047270.6,N
1499811436.0,286047270.6,N
1499811455.8,286047271.7,N
1499811475.6,286047272.0,N
1499811495.4,286047273.2,N
1499811515.3,286047273.0,N
1499811535.1,286047272.0,N
1499811555.8,286047271.9,N
1499811575.7,286047276.3,N
1499811595.5,286047276.3,N
1499811615.3,286047275.3,N
1499811635.2,286047273.6,N
1499811655.9,286047277.9,N
1499811675.7,286047273.5,N
1499811695.6,286047271.8,N
1499811715.4,286047275.6,N
1499811735.2,286047278.0,N
1499811755.1,286047273.3,N
1499811756.0,286047273.3,N
1499811775.8,286047273.4,N
1499811795.6,286047276.4,N
1499811815.5,286047276.0,N
1499811835.3,286047274.0,N
1499811855.1,286047274.8,N
1499811875.8,286047272.6,N
1499811895.7,286047274.2,N
1499811915.5,286047275.9,N
1499811935.3,286047276.0,N
1499811955.2,286047274.3,N
1499811975.9,286047275.2,N
1499811995.7,286047276.1,N
1499812015.6,286047275.5,N
1499812035.4,286047273.6,N
1499812055.2,286047273.6,N
1499812075.1,286047275.7,N
1499812076.0,286047275.7,N
1499812095.8,286047273.8,N
1499812115.6,286047275.6,N
1499812135.5,286047275.8,N
1499812155.3,286047276.4,N
1499812175.1,286047276.8,N
1499812195.8,286047278.3,N
1499812215.7,286047278.2,N
1499812235.5,286047279.8,N
1499812255.3,286047284.0,N
1499812275.2,286047282.7,N
1499812295.9,286047281.4,N
1499812315.7,286047282.0,N
1499812335.6,286047278.1,N
1499812355.4,286047279.9,N
1499812375.2,286047278.4,N
1499812395.1,286047281.1,N
1499812396.0,286047281.1,N
1499812415.8,286047280.9,N
1499812435.6,286047281.0,N
1499812455.5,286047282.2,N
1499812475.3,286047284.0,N
1499812495.1,286047284.4,N
1499812515.9,286047283.8,N
1499812535.7,286047281.8,N
1499812555.5,286047280.1,N
1499812575.3,286047282.4,N
1499812595.2,286047282.2,N
1499812615.0,286047282.1,N
1499812615.9,286047282.1,N
1499812635.7,286047281.9,N
1499812655.6,286047282.4,N
1499812675.4,286047284.2,N
1499812695.2,286047283.1,N
1499812715.1,286047284.0,N
1499812716.0,286047284.0,N
1499812735.8,286047284.3,N
1499812755.6,286047284.5,N
1499812775.5,286047287.0,N
1499812795.3,286047285.4,N
1499812815.1,286047284.8,N
1499812835.9,286047289.2,N
1499812855.7,286047286.2,N
1499812875.5,286047288.6,N
1499812895.4,286047288.2,N
1499812915.2,286047286.7,N
1499812935.0,286047286.8,N
1499812935.9,286047286.8,N
1499812955.8,286047286.5,N
1499812975.6,286047289.2,N
1499812995.4,286047287.8,N
1499813015.2,286047289.0,N
1499813035.1,286047290.2,N
1499813036.0,286047290.2,N
1499813055.8,286047289.7,N
1499813075.6,286047292.4,N
1499813095.5,286047289.6,N
1499813115.3,286047289.3,N
1499813135.1,286047288.2,N
1499813155.9,286047289.8,N
1499813175.7,286047290.3,N
1499813195.5,286047291.1,N
1499813215.4,286047293.7,N
1499813235.2,286047291.7,N
1499813255.0,286047291.6,N
1499813255.9,286047291.6,N
1499813275.8,286047294.0,N
1499813295.6,286047292.9,N
1499813315.4,286047293.8,N
1499813335.3,286047296.8,N
1499813355.1,286047296.8,N
1499813356.0,286047296.8,N
1499813375.8,286047296.3,N
1499813395.7,286047297.2,N
1499813415.5,286047296.5,N
1499813435.3,286047298.2,N
1499813455.2,286047297.6,N
1499813475.9,286047296.3,N
1499813495.7,286047296.6,N
1499813515.5,286047297.0,N
1499813535.4,286047298.0,N
1499813555.2,286047296.5,N
1499813575.0,286047295.7,N
1499813575.9,286047295.7,N
1499813595.8,286047294.1,N
1499813615.6,286047294.3,N
1499813635.4,286047297.1,N
1499813655.3,286047297.0,N
1499813675.1,286047296.3,N
1499813695.8,286047296.6,N
1499813715.7,286047296.7,N
1499813735.5,286047296.1,N
1499813755.3,286047296.3,N
1499813775.2,286047297.7,N
1499813795.9,286047299.5,N
1499813815.7,286047300.4,N
1499813835.5,286047297.3,N
1499813855.4,286047300.0,N
1499813875.2,286047301.2,N
1499813895.0,286047301.1,N
1499813895.9,286047301.1,N
1499813915.8,286047301.0,N
1499813935.6,286047303.2,N
1499813955.4,286047301.4,N
1499813975.3,286047298.9,N
1499813995.1,286047301.3,N
